Regional Weather Roundup
Issued by NWS Green Bay, WI

Home | Current Version | Previous Version | Graphics & Text | Print | Product List | Glossary Off
Versions: 1 2 3 4 5 6 7 8 9 10 11 12 13 14 15 16 17 18 19 20 21 22 23 24 25 26 27 28 29 30 31 32 33 34 35 36 37 38 39 40 41 42 43 44 45 46 47 48 49 50

000
ASUS43 KGRB 281811
RWRGRB

NORTH-CENTRAL AND NORTHEAST WISCONSIN REGIONAL WEATHER ROUNDUP
NATIONAL WEATHER SERVICE GREEN BAY WI
100 PM CDT THU MAY 28 2015

WIZ005-009-010>012-018-019-281900-
NORTH CENTRAL WISCONSIN

CITY           SKY/WX    TMP DP  RH WIND       PRES   REMARKS
IRONWOOD       MOSUNNY   82  54  36 SW14      30.01F
MANITOWISH WTR PTSUNNY   79  54  41 S9G18     30.08F
ARBOR VITAE    MOSUNNY   80  53  38 SW12G21   30.09F
EAGLE RIVER    MOSUNNY   78  47  33 SW9G18    30.10F
LAND O LAKES   MOSUNNY   81  46  28 SW10      30.10F
RHINELANDER    MOSUNNY   81  52  36 SW12G21   30.12F
PHILLIPS       MOSUNNY   80  56  43 S10G18    30.09F
ANTIGO         MOSUNNY   76  65  69 S13       30.14F
TOMAHAWK       MOSUNNY   80  57  44 S6        30.11F
MERRILL        SUNNY     80  59  50 SW10G16   30.12F
$$

WIZ013-073-281900-
NORTHEAST WISCONSIN

CITY           SKY/WX    TMP DP  RH WIND       PRES   REMARKS
IRON MOUNTAIN  SUNNY     76  61  59 SE9       30.11F
MARINETTE      SUNNY     64  55  72 SE7       30.14F
OCONTO         SUNNY     75  62  64 E6        30.13F
$$

WIZ017-030-035>037-045-281900-
CENTRAL WISCONSIN

CITY           SKY/WX    TMP DP  RH WIND       PRES   REMARKS
MEDFORD        SUNNY     78  60  54 SW8       30.12F
WAUSAU         SUNNY     80  58  46 S9        30.10F
MOSINEE        MOSUNNY   77  63  61 SW7       30.14F
MARSHFIELD     MOSUNNY   82  56  40 S7G17     30.11F
WISC RAPIDS    MOSUNNY   83  55  38 SW10      30.13F
STEVENS POINT  MOSUNNY   79  57  47 SW9       30.13S
WAUPACA        SUNNY     84  59  42 S6        30.13F
SHAWANO        SUNNY     81  62  52 SW6       30.13F
CLINTONVILLE   SUNNY     81  61  50 SW6       30.12F
$$

WIZ038-039-048-051-281900-
FOX VALLEY

CITY           SKY/WX    TMP DP  RH WIND       PRES   REMARKS
NWS GREEN BAY  SUNNY     80  64  58 S8        30.13F
APPLETON       MOSUNNY   81  57  44 SW8       30.14F
OSHKOSH        MOSUNNY   80  60  50 S10       30.14F
FOND DU LAC    MOSUNNY   80  62  54 S10       30.15F
$$

WIZ022-050-052-281900-
EAST CENTRAL WISCONSIN

CITY           SKY/WX    TMP DP  RH WIND       PRES   REMARKS
STURGEON BAY   SUNNY     73  63  68 S7        30.18S
MANITOWOC      SUNNY     68  60  75 E8        30.16F
SHEBOYGAN      MOSUNNY   80  60  50 S9        30.15F
$$

LMZ563-521-522-541>543-281900-
LAKESHORE

STATION/POSITION TIME  TEMP    WIND        PRES    VSBY  WAVE
                       AIR SEA DIR/SP/G                  HT/PER
                 (UTC) (F)     (DEG/KT/KT) (MB)    (MI)  (FT/S)
SHEBOYGAN LKSHOR 1800   53     170/ 13/ 14 1021.5F
KEWAUNEE LKSHORE 1700   50     160/  4/  7 1021.0F
ALGOMA MARINA    1738             CALM       N/A
TWO RIVERS CG    1755   54                 1022.6      6   1
NORTHPORT PIER   1700   49     140/  9/ 10 1021.7F
N MID LAKE BUOY  1650   40 37  130/  4/  6 1022.9          1/ 3
SISTER BAY LKSHO 1748   71     180/ 11/ 15   N/A
CHAMBERS ISLAND  1700   55      10/  7/  9 1021.3F
MENOMINEE LKSHOR 1700   55      20/  5/  7 1021.9F
$$



USA.gov is the U.S. government's official web portal to all federal, state and local government web resources and services.